Regional Weather Roundup
Issued by NWS

Home | Current Version | Previous Version | Graphics & Text | Print | Product List | Glossary On
Versions: 1 2 3 4 5 6 7 8 9 10 11 12 13 14 15 16 17 18 19 20 21 22 23 24 25 26 27 28 29 30 31 32 33 34 35 36 37 38 39 40 41 42 43 44 45 46 47 48 49
000
ASUS45 KCYS 210210
RWRWY

WYOMING REGIONAL WEATHER ROUNDUP
NATIONAL WEATHER SERVICE CHEYENNE WY
700 PM MST SAT DEC 20 2014

NOTE:  "FAIR" INDICATES FEW OR NO CLOUDS BELOW 12,000 FEET
WITH NO SIGNIFICANT WEATHER AND/OR OBSTRUCTIONS TO VISIBILITY.

WYZ001-210300-
YELLOWSTONE NATIONAL PARK

CITY           SKY/WX    TMP DP  RH WIND       PRES   REMARKS
LK YELLOWSTONE   N/A     25  21  85 CALM      29.90F
W YELLOWSTONE  NOT AVBL

$$
WYZ002>013-054>058-071-098>099-210300-
NORTHERN WYOMING

CITY           SKY/WX    TMP DP  RH WIND       PRES   REMARKS
JACKSON        CLOUDY    30  28  93 S12       29.92F WCI  21
CODY           FAIR      30  19  64 SW8       29.80F WCI  23
GREYBULL       FAIR      17  14  88 W3        29.86S
WORLAND        FAIR      13  11  92 CALM      29.84F
SHERIDAN       FAIR      29  22  75 S3        29.79F
BUFFALO        FAIR      31  22  69 SW5       29.81F WCI  26
GILLETTE       FAIR      33  26  75 S9        29.80F WCI  25
HULETT           N/A    N/A N/A N/A MISG        N/A
NEWCASTLE      FAIR      34  27  75 E7        29.86F WCI  28

$$
WYZ014>020-022>026-101>103-210300-
CENTRAL WYOMING

CITY           SKY/WX    TMP DP  RH WIND       PRES   REMARKS
BIG PINEY      CLOUDY    26  20  77 E7        29.96S WCI  18
PINEDALE       MOCLDY    23  21  93 NW3       29.97S
DUBOIS         NOT AVBL
LANDER         FAIR      25  18  74 SW3       29.86F
RIVERTON       FAIR      17  14  88 NE5       29.88F WCI  10
CASPER         FAIR      32  26  78 SW16      29.87F WCI  21
DOUGLAS        CLOUDY    38  26  62 SW8       29.89F WCI  32

$$
WYZ021-027>030-104>119-210300-
SOUTHERN WYOMING

CITY           SKY/WX    TMP DP  RH WIND       PRES   REMARKS
EVANSTON       CLOUDY    30  29  96 SW12      30.02F WCI  20
KEMMERER       CLOUDY    30  28  93 SW8       29.99F WCI  23
FORT BRIDGER   CLOUDY    32  30  92 W12       30.04S WCI  23
ROCK SPRINGS   CLOUDY    30  27  88 SW16      29.99S WCI  19
DIXON          FLURRIES  31  28  88 W7        30.06R WCI  24
RAWLINS        CLOUDY    30  25  81 SW22      29.95F WCI  17
SARATOGA       CLOUDY    30  25  80 SW17      29.97S WCI  18
LARAMIE        FAIR      27  21  78 S7        29.93S WCI  19
CHEYENNE       MOCLDY    35  20  54 W10       29.93F WCI  27
TORRINGTON     FAIR     N/A N/A N/A NW7       29.91S
PINE BLUFFS    MOCLDY    37  23  56 SW10      29.94S WCI  30

$$


USA.gov is the U.S. government's official web portal to all federal, state and local government web resources and services.